Temperature
15 15 16 16 13 12 14 15 16 17 17 18 18 17 16 15 16 16 15 15 15 15 15 15 15 15 15 15 15 15 15 15 15 15 15 14 14 14 14 14 14 14 14 14 14 14 14 14 14
15 15 16 15 12 13 14 14 15 16 17 18 18 17 15 15 15 15 15 15 15 15 15 15 14 15 15 15 15 14 14 14 14 14 14 14 14 14 14 14 14 14 14 14 14 14 14 14 14
15 15 15 12 12 13 15 15 15 16 18 18 16 16 15 15 15 15 15 15 15 15 15 14 14 14 14 14 14 14 14 14 14 14 14 14 14 14 14 14 14 14 14 13 13 13 13 13 13
15 15 14 11 13 13 14 15 15 16 17 17 16 14 15 15 15 15 15 15 14 14 14 14 14 14 14 14 14 14 14 14 14 14 14 14 14 14 14 14 14 13 13 13 13 13 13 13 13
15 14 12 12 13 13 14 15 16 15 15 16 15 13 14 14 14 15 14 14 14 14 14 14 14 14 14 14 14 14 14 14 14 14 14 14 14 14 14 14 14 13 13 13 13 13 13 13 13
14 12 11 12 13 14 14 16 15 14 15 15 15 13 13 14 14 14 14 14 14 14 14 14 14 14 14 14 14 13 13 13 13 13 13 13 13 13 13 13 13 13 13 13 13 13 13 13 13
13 10 11 12 13 14 15 16 15 14 14 15 15 13 13 13 13 14 14 13 13 13 13 13 13 13 13 13 13 13 13 13 13 13 13 13 13 13 13 13 13 13 13 13 13 12 12 12 12
13 10 12 12 13 13 14 15 15 14 14 15 15 13 12 13 13 13 13 13 13 13 13 13 13 13 13 13 13 13 13 13 13 13 13 13 13 13 13 13 13 13 13 12 12 12 12 12 12
13 10 11 12 13 13 14 14 14 14 14 14 14 14 14 13 13 12 12 12 12 12 12 13 13 13 13 13 12 12 12 12 12 12 12 12 12 13 12 12 12 12 12 12 12 12 12 12 12
12 9 11 12 13 12 13 13 13 13 13 13 13 13 13 13 13 12 12 12 12 12 12 12 12 12 12 12 12 12 12 12 12 12 12 12 12 12 12 12 12 12 12 12 12 12 12 12 12
11 10 11 12 13 13 12 12 13 13 12 12 13 13 13 12 12 12 12 12 12 12 12 12 12 12 12 12 12 12 12 12 12 12 12 12 12 12 12 12 12 12 11 11 12 12 12 12 12
10 11 12 12 13 12 12 12 12 12 12 13 13 13 12 12 12 12 12 11 11 11 11 11 11 11 11 11 11 11 11 11 11 11 11 11 11 11 11 11 11 11 11 11 11 11 11 11 11
10 11 11 12 12 12 12 11 11 11 13 13 13 12 12 12 12 11 11 11 11 11 11 11 11 11 11 11 11 11 11 11 11 11 11 11 11 11 11 11 11 11 11 11 11 11 11 11 11
10 10 11 11 12 11 11 10 10 11 12 12 12 12 12 12 11 11 11 11 11 11 11 11 10 10 10 10 10 10 10 10 10 10 10 10 10 10 10 10 10 10 10 10 10 10 10 10 10
11 10 10 10 11 11 11 10 9 12 12 11 11 11 11 11 11 11 11 11 11 11 10 10 10 10 10 10 10 10 10 10 10 10 10 10 10 10 10 10 10 10 10 10 10 10 10 10 10
9 9 8 10 10 10 10 9 10 11 11 11 11 11 11 10 11 11 10 10 10 10 10 10 10 9 9 9 9 9 9 9 9 9 9 9 9 10 9 9 9 9 9 9 9 9 9 9 9
8 7 8 9 10 9 9 8 9 11 10 10 10 10 10 10 10 10 10 10 10 10 10 10 9 9 9 9 9 9 9 9 9 9 9 9 9 9 9 9 9 9 9 8 8 8 9 9 9
7 7 8 8 9 9 8 8 8 10 10 9 9 10 10 10 10 9 9 9 9 9 9 9 9 9 9 9 9 9 8 8 8 8 8 8 8 8 8 8 8 8 8 8 8 8 8 8 8
8 8 7 8 8 8 7 7 8 8 9 8 8 9 9 9 9 9 9 9 9 9 9 9 9 8 8 8 8 8 8 8 8 8 8 8 8 8 8 8 8 8 8 7 7 7 7 7 7
8 7 7 7 8 8 7 7 7 7 8 8 8 8 9 9 9 9 9 8 8 8 8 8 8 8 8 8 8 8 8 8 8 8 8 8 7 7 7 7 7 7 7 7 7 7 6 6 6
7 7 7 7 7 7 7 6 7 7 8 8 8 9 9 8 8 8 8 8 8 8 8 8 8 8 7 7 7 7 7 7 7 7 7 7 7 7 7 7 6 6 6 6 6 6 6 6 6
7 7 7 7 6 5 6 5 6 6 6 7 7 8 8 8 8 8 8 8 8 8 8 8 7 7 7 7 7 7 7 7 7 7 7 7 6 6 6 6 6 6 6 6 5 5 5 5 5
6 6 6 6 5 4 5 5 5 5 6 6 6 7 7 8 8 8 8 8 7 7 7 7 7 7 6 6 6 6 6 6 6 6 6 6 6 6 5 5 5 5 5 5 5 5 5 4 4
6 6 5 4 3 4 4 4 5 5 6 6 6 6 7 7 7 7 7 7 7 7 7 6 6 6 6 6 6 6 5 5 5 5 5 5 5 5 5 5 5 5 5 4 4 4 4 4 4
5 4 4 4 3 4 4 4 5 5 5 5 5 6 6 6 7 7 6 6 6 6 6 6 6 6 5 5 5 5 5 5 5 5 5 5 5 5 5 4 4 4 4 4 4 4 4 3 3
5 5 4 4 4 3 4 4 4 5 5 5 6 6 6 6 6 6 6 6 6 6 6 6 5 5 5 5 5 5 4 4 4 4 4 4 4 4 4 4 4 4 4 3 3 3 3 3 3
4 3 4 3 2 2 3 3 4 5 4 5 5 5 5 5 5 5 5 5 5 5 5 5 5 5 5 4 4 4 4 4 4 4 3 3 3 3 3 3 3 3 3 3 2 2 2 2 2
4 3 2 3 3 3 3 3 4 5 4 4 3 4 4 5 5 5 5 5 5 5 5 4 4 4 4 4 4 4 4 3 3 3 3 3 3 3 3 3 3 2 2 2 2 2 2 2 2
3 3 3 2 2 3 3 4 4 4 4 3 3 4 4 4 4 4 4 4 4 4 4 4 4 3 3 3 3 3 3 3 3 2 2 2 2 2 2 2 2 2 2 1 1 1 1 1 1
3 3 2 2 2 1 2 3 4 3 3 3 3 4 4 4 4 4 4 4 3 3 3 3 3 3 3 3 3 2 2 2 2 2 2 2 2 2 2 2 2 1 1 1 1 1 1 1 1
Wind_Speed
10 8 2 4 5 3 3 4 2 1 1 1 1 5 6 4 3 4 2 4 8 9 10 11 12 12 12 12 12 11 11 11 11 12 12 12 12 12 12 12 11 11 11 11 11 11 11 10 10
6 3 4 5 4 2 4 4 3 3 3 1 3 4 5 3 3 5 3 5 9 10 10 10 12 12 12 12 12 12 11 11 11 11 12 12 11 12 11 11 11 11 11 11 11 11 10 10 9
4 2 4 4 3 6 4 3 4 3 1 1 3 4 4 3 3 3 3 7 9 8 9 10 12 12 12 12 11 12 11 11 11 11 11 11 11 11 11 11 10 10 10 10 10 10 9 9 8
3 4 4 3 4 5 5 5 2 1 3 3 3 4 2 1 2 3 6 8 9 6 8 10 11 11 12 11 11 11 11 11 11 11 11 11 11 11 11 10 10 10 9 9 9 8 8 8 7
4 4 3 1 5 5 4 4 2 0 1 2 3 4 1 3 3 7 8 9 9 6 7 9 10 11 11 11 11 11 11 11 10 10 10 10 10 10 9 9 9 9 9 8 8 7 7 7 6
4 4 3 4 6 5 4 3 0 1 1 1 3 4 1 1 4 6 8 8 8 8 7 7 9 9 10 11 11 11 10 10 10 9 9 9 9 9 9 8 8 8 8 8 7 7 7 6 5
4 4 4 5 4 4 3 1 1 0 0 1 3 5 2 0 2 5 7 8 8 8 7 6 7 7 8 9 10 10 9 9 9 9 8 9 9 8 8 8 7 8 8 7 7 6 6 5 5
4 4 2 3 4 4 2 1 0 1 2 1 3 7 5 5 3 6 7 7 7 6 6 5 6 6 6 6 8 9 8 8 8 8 8 7 7 7 7 6 6 6 6 6 6 5 4 4 4
3 3 4 4 4 3 1 1 3 2 1 2 1 3 5 7 7 7 6 4 5 4 4 4 5 5 6 5 5 7 8 7 7 7 7 6 6 6 5 5 6 6 5 5 5 4 4 4 3
3 4 6 4 3 2 1 1 2 2 2 1 2 2 4 7 8 7 7 5 5 4 3 2 4 4 5 4 4 3 5 5 6 5 6 5 5 5 5 5 5 4 4 4 3 3 3 3 3
4 6 4 3 2 1 2 3 2 2 2 4 4 4 5 5 5 6 6 6 5 5 4 3 3 3 4 3 3 3 3 4 4 5 5 5 5 4 4 4 3 3 2 2 2 2 3 3 2
3 4 4 3 2 1 2 2 2 3 6 5 5 6 6 6 6 6 7 6 4 5 5 4 3 3 3 3 3 3 2 3 3 3 5 5 4 3 3 2 2 2 2 1 2 2 2 2 1
4 4 3 4 3 3 3 3 3 5 6 3 3 4 6 6 6 5 5 5 5 5 4 4 4 4 3 3 2 3 2 2 3 3 4 4 3 2 2 2 2 2 2 1 1 1 1 1 1
3 3 4 5 4 2 3 5 2 7 4 3 4 5 6 6 6 4 5 5 5 5 4 4 4 4 4 3 2 2 2 2 4 3 3 4 4 3 3 2 2 1 1 2 1 1 1 0 0
2 2 5 4 3 2 1 5 7 8 3 3 4 4 5 5 5 6 7 7 6 6 5 4 4 4 4 3 3 3 2 3 3 3 3 3 3 3 3 2 2 1 1 2 2 1 1 0 1
1 1 3 5 3 2 3 8 7 5 4 5 4 3 3 3 4 5 5 6 6 6 5 4 4 4 4 3 3 2 3 3 3 3 3 3 3 3 3 2 1 1 2 2 1 0 0 1 1
1 2 5 5 3 1 4 8 7 3 4 5 5 4 3 3 3 4 5 6 6 6 6 5 4 4 4 3 3 2 2 2 2 3 2 2 3 3 3 2 1 2 2 1 0 0 0 1 2
4 4 4 6 3 1 5 9 9 6 5 6 5 4 4 4 5 4 5 5 5 5 5 5 4 4 3 3 2 2 2 2 2 2 2 2 2 3 3 2 1 2 1 1 1 0 0 1 1
4 4 5 6 3 3 7 11 11 7 6 6 6 5 5 4 4 3 3 4 5 4 4 4 4 3 3 3 3 2 2 1 1 1 2 3 2 2 2 1 1 1 2 2 2 1 0 1 1
4 4 5 6 3 3 6 11 10 8 8 8 8 7 6 4 2 3 3 3 5 5 5 4 4 3 3 3 3 2 2 2 1 1 2 2 2 2 1 2 1 1 1 1 2 1 1 0 0
4 6 6 5 5 3 4 8 5 4 4 4 5 6 6 6 5 4 3 3 4 5 5 4 4 3 3 3 3 3 2 1 1 0 0 1 2 2 1 2 1 1 2 2 2 2 3 2 1
5 5 4 3 2 4 0 5 7 4 4 4 5 5 5 5 5 4 4 3 4 5 4 4 4 3 3 3 4 4 3 2 2 2 1 0 1 1 1 2 1 1 1 2 2 2 2 2 2
4 1 2 2 2 3 2 3 8 3 4 6 5 5 4 4 4 4 4 4 3 3 3 3 3 3 3 3 4 4 3 2 1 1 1 1 1 1 1 1 1 2 2 2 2 2 2 3 3
1 2 3 3 2 3 5 6 7 5 7 5 3 3 3 2 3 2 2 2 1 2 3 3 4 3 3 3 3 4 4 3 2 2 2 2 1 1 1 1 2 2 2 2 3 3 4 4 3
3 4 3 4 2 6 3 4 8 6 5 5 4 3 2 2 3 2 2 2 2 2 3 3 3 3 3 3 3 3 3 3 3 3 3 2 2 2 3 2 2 2 2 2 2 3 4 4 4
3 5 5 4 5 5 3 6 7 4 2 1 2 2 2 2 2 2 2 2 2 3 3 3 3 2 2 3 3 3 3 2 2 2 2 3 3 3 3 2 2 2 2 2 2 3 4 4 4
4 4 5 4 1 3 6 6 6 1 1 1 0 1 1 1 2 2 1 1 2 2 3 3 3 2 2 3 2 2 3 3 2 2 2 2 2 2 2 2 2 2 2 3 3 3 4 3 4
3 5 4 4 2 4 6 5 5 4 4 3 2 2 2 1 1 1 1 2 2 2 2 2 2 3 2 2 2 1 2 2 2 2 3 3 2 2 2 2 3 3 2 2 3 3 3 4 4
3 3 3 3 3 4 5 7 4 5 4 4 3 3 2 2 2 2 2 2 1 1 1 2 2 1 1 2 2 1 2 2 2 2 3 3 2 3 3 3 3 3 3 3 3 4 4 4 4
4 5 6 5 5 4 3 7 3 3 3 2 2 2 2 2 2 2 2 1 1 1 1 2 2 2 2 2 1 2 2 1 2 2 2 2 3 3 3 3 3 3 3 3 4 4 4 4 5
Wind_Direction
334 340 57 58 59 55 240 254 243 295 346 314 81 97 110 109 124 149 163 136 129 134 141 142 140 135 132 130 127 125 122 119 115 111 108 108 108 107 105 103 102 103 102 102 102 102 100 98 95
338 359 56 64 102 175 260 261 243 248 207 116 60 81 81 77 79 110 120 130 130 130 132 139 140 136 133 131 129 127 125 122 119 115 111 109 109 110 108 106 103 102 102 101 102 101 99 98 97
336 45 82 86 145 193 215 233 217 260 304 71 58 52 102 121 122 140 158 138 125 121 126 138 142 141 137 133 131 129 128 125 120 117 115 113 110 109 107 106 103 101 100 102 103 101 97 95 94
47 48 59 95 211 228 214 231 229 335 2 34 103 68 63 28 152 149 134 123 120 116 121 134 138 141 138 134 132 130 131 128 125 122 120 119 115 110 107 104 103 102 101 102 103 100 97 94 89
62 79 78 248 238 250 247 255 245 8 345 3 99 107 62 352 87 113 121 121 124 116 114 129 134 140 142 138 134 131 128 129 129 127 125 123 120 115 110 108 106 105 104 103 107 104 100 96 90
60 77 125 221 240 256 269 265 329 24 344 14 102 115 151 350 97 117 121 118 123 123 114 122 133 134 142 141 137 136 134 131 129 128 128 126 123 121 120 116 112 110 108 104 104 104 99 94 89
115 119 184 211 234 256 265 283 135 159 315 261 147 127 154 249 132 120 113 109 107 107 103 101 118 129 134 141 141 139 140 135 130 127 130 129 127 126 125 121 115 114 112 109 104 107 101 92 85
132 120 193 224 220 246 292 340 46 152 239 272 119 143 181 207 156 108 97 98 102 96 93 90 93 99 111 130 142 141 141 138 133 129 125 127 126 125 125 123 119 117 115 113 107 103 104 98 87
101 101 207 217 207 235 327 2 328 345 100 25 50 175 185 155 126 107 100 89 102 102 95 97 96 95 97 108 126 142 142 140 135 131 130 125 116 115 122 125 123 124 121 118 111 106 97 86 79
104 179 219 226 207 212 322 322 294 12 3 353 8 28 117 130 131 133 138 144 144 145 136 113 113 108 106 111 96 111 134 132 129 122 123 122 121 122 121 125 127 130 129 125 119 106 94 79 65
154 199 222 247 236 221 286 301 295 163 255 223 200 177 148 141 143 152 161 164 170 162 153 148 135 117 111 104 108 98 117 121 124 127 127 122 118 118 111 109 113 113 122 104 100 80 74 79 79
186 237 229 248 253 236 242 270 295 230 222 215 195 174 161 165 177 176 172 173 167 154 159 158 140 125 115 113 113 112 117 127 125 133 133 127 113 106 105 104 104 94 104 89 67 60 61 69 78
222 249 261 261 270 251 252 250 253 253 240 213 181 168 173 176 188 185 172 166 158 152 150 154 143 138 130 115 112 108 111 135 136 130 130 132 121 126 113 106 106 100 106 108 70 66 75 61 24
233 256 278 279 276 267 237 260 239 249 232 196 183 194 188 186 186 175 168 169 163 155 153 147 138 138 128 128 127 115 103 127 119 116 126 128 129 124 120 112 104 106 128 135 131 122 107 15 354
293 316 310 272 237 233 188 282 236 237 211 216 217 203 190 193 176 182 183 173 166 159 148 141 138 123 128 134 135 113 100 118 113 117 122 125 127 127 123 119 117 102 122 113 94 79 62 360 339
3 15 289 277 227 214 164 260 256 241 199 221 227 210 196 202 188 190 176 162 158 150 146 145 138 130 131 131 128 111 106 112 120 125 126 128 123 124 116 113 126 118 100 88 106 124 95 327 321
23 257 253 279 248 200 200 253 267 261 197 221 219 206 201 211 209 199 175 163 161 158 153 147 139 146 143 135 126 118 104 108 117 121 121 125 120 125 119 113 111 120 91 72 151 92 165 296 310
229 238 252 251 266 233 243 258 272 268 224 226 219 206 197 200 214 204 180 167 160 159 154 148 144 147 142 131 117 105 92 94 102 114 123 129 127 133 124 103 106 111 125 160 176 178 123 251 278
209 225 260 260 270 269 252 266 271 263 244 233 225 216 212 218 215 182 167 161 150 149 148 151 149 148 142 137 145 145 159 156 152 113 122 128 129 128 116 105 110 128 173 198 196 190 175 301 341
237 255 270 289 293 265 271 275 270 250 235 219 215 214 211 214 187 161 170 170 168 166 161 153 153 155 161 156 158 154 154 157 165 102 88 117 130 135 127 118 162 184 179 200 206 185 180 269 123
243 225 242 262 319 315 311 298 279 275 243 229 214 204 199 200 196 184 171 174 164 168 170 168 167 161 162 147 128 113 91 79 90 0 183 113 143 148 143 139 153 195 187 210 218 195 185 199 241
246 233 236 253 313 287 353 288 282 276 280 251 229 206 206 208 197 187 182 186 186 188 174 160 161 157 159 150 153 156 168 188 213 211 203 170 135 165 177 168 169 196 200 214 227 206 201 183 215
227 259 238 233 212 290 244 227 280 282 263 257 238 217 213 204 190 190 196 198 193 178 165 157 149 152 157 158 165 170 186 199 189 173 191 218 213 193 205 200 191 208 213 220 227 218 210 200 204
173 46 35 50 83 268 232 199 272 247 237 249 242 223 214 197 186 186 185 143 137 134 140 148 146 156 159 164 173 181 188 184 171 193 214 234 232 225 232 221 216 222 221 225 234 223 215 214 210
83 91 19 349 333 251 235 212 249 254 248 224 219 222 215 176 164 160 153 150 151 147 151 149 148 168 172 173 183 189 192 185 193 206 212 225 232 237 241 240 235 236 230 230 233 229 228 218 215
188 155 169 216 238 279 279 234 254 267 276 242 212 193 173 155 162 165 174 174 173 173 168 156 161 178 183 184 198 194 187 186 201 209 212 221 228 233 229 228 242 251 242 243 236 240 242 225 221
158 191 173 154 235 274 266 280 299 265 318 303 216 135 191 196 186 181 183 191 191 185 187 179 176 189 202 200 197 192 187 183 198 216 215 222 236 240 226 225 236 244 240 242 240 242 251 237 226
156 151 116 146 204 261 280 266 247 253 245 252 251 243 245 242 222 229 227 221 216 209 196 180 179 197 210 202 201 206 194 196 202 206 217 225 235 239 229 234 235 242 240 237 234 242 250 242 233
158 162 157 154 178 197 262 267 233 224 222 226 242 243 233 227 236 251 261 248 226 213 183 184 191 187 186 187 189 190 204 204 209 222 233 232 231 228 228 232 235 237 240 238 239 243 243 242 238
196 189 162 176 229 210 229 267 263 219 218 205 236 255 260 254 259 254 248 243 219 217 206 197 202 198 201 192 191 208 215 213 224 241 249 240 238 239 234 231 237 240 241 238 237 244 244 240 235
Height
1508 1509 1510 1511 1515 1524 1522 1515 1508 1505 1504 1503 1503 1503 1504 1508 1511 1517 1515 1513 1515 1516 1518 1520 1521 1523 1524 1525 1526 1526 1527 1528 1529 1529 1530 1531 1531 1531 1532 1532 1533 1533 1533 1534 1534 1534 1535 1535 1536
1508 1509 1511 1511 1520 1528 1522 1513 1508 1504 1503 1503 1503 1504 1504 1507 1509 1511 1512 1513 1515 1516 1518 1520 1521 1523 1524 1525 1525 1526 1527 1528 1528 1529 1530 1530 1531 1531 1532 1532 1533 1533 1533 1534 1534 1535 1535 1535 1536
1508 1509 1511 1513 1520 1522 1516 1508 1505 1503 1502 1503 1504 1505 1506 1508 1509 1510 1511 1513 1515 1516 1517 1519 1521 1522 1523 1524 1525 1526 1527 1527 1528 1529 1529 1530 1531 1531 1532 1532 1533 1533 1533 1534 1534 1535 1535 1535 1536
1508 1510 1511 1517 1517 1513 1509 1505 1504 1503 1502 1502 1503 1506 1507 1509 1510 1510 1511 1513 1515 1516 1517 1518 1520 1522 1523 1524 1524 1525 1526 1527 1528 1528 1529 1530 1530 1531 1531 1532 1532 1533 1533 1534 1534 1535 1535 1535 1535
1508 1509 1514 1518 1514 1509 1505 1504 1503 1503 1503 1503 1503 1506 1508 1509 1509 1510 1511 1513 1514 1515 1517 1518 1519 1521 1522 1523 1524 1525 1525 1526 1527 1528 1528 1529 1530 1530 1531 1531 1532 1532 1533 1533 1534 1534 1535 1535 1535
1508 1509 1519 1519 1513 1507 1504 1503 1503 1503 1503 1504 1504 1506 1508 1509 1509 1510 1511 1513 1514 1515 1516 1517 1519 1520 1521 1522 1523 1524 1525 1525 1526 1527 1528 1528 1529 1529 1530 1531 1531 1532 1532 1533 1533 1534 1534 1534 1534
1508 1512 1515 1513 1512 1508 1504 1503 1503 1503 1503 1504 1503 1505 1507 1508 1509 1510 1511 1512 1513 1514 1515 1516 1518 1519 1520 1521 1522 1523 1524 1524 1525 1526 1526 1527 1528 1528 1529 1530 1530 1531 1531 1532 1532 1532 1533 1533 1533
1506 1510 1511 1512 1510 1507 1504 1503 1503 1503 1503 1503 1503 1504 1505 1507 1508 1509 1510 1511 1512 1513 1514 1515 1516 1517 1518 1519 1521 1522 1522 1523 1524 1524 1525 1526 1526 1527 1528 1528 1529 1530 1530 1530 1531 1531 1531 1532 1532
1505 1512 1513 1510 1507 1505 1503 1503 1502 1502 1502 1502 1502 1503 1503 1505 1506 1508 1509 1510 1510 1511 1512 1514 1515 1516 1517 1518 1519 1520 1520 1521 1522 1523 1523 1524 1525 1525 1526 1527 1527 1528 1529 1529 1529 1530 1530 1530 1531
1505 1512 1508 1504 1503 1503 1502 1502 1502 1502 1501 1502 1502 1502 1503 1504 1504 1505 1506 1507 1508 1509 1510 1512 1513 1513 1514 1516 1516 1518 1518 1519 1520 1520 1522 1522 1523 1524 1524 1525 1526 1526 1527 1527 1528 1528 1528 1529 1529
1503 1506 1503 1502 1501 1501 1501 1501 1501 1501 1501 1500 1500 1501 1501 1502 1503 1503 1504 1505 1506 1507 1508 1509 1510 1511 1512 1513 1514 1515 1515 1517 1518 1519 1519 1520 1521 1522 1522 1523 1524 1525 1525 1526 1526 1526 1527 1527 1527
1503 1502 1501 1500 1500 1500 1500 1500 1500 1499 1498 1499 1499 1499 1499 1500 1501 1501 1502 1503 1504 1505 1506 1507 1508 1509 1510 1511 1511 1512 1513 1514 1516 1517 1518 1518 1519 1519 1520 1521 1522 1523 1523 1524 1524 1524 1525 1525 1525
1501 1500 1500 1499 1499 1498 1499 1498 1498 1496 1496 1496 1497 1497 1497 1498 1499 1499 1500 1501 1502 1503 1504 1505 1506 1506 1507 1508 1509 1510 1511 1512 1513 1514 1515 1516 1516 1517 1518 1518 1520 1520 1521 1521 1522 1522 1522 1523 1523
1500 1499 1498 1498 1497 1497 1497 1496 1497 1493 1494 1494 1495 1495 1495 1495 1496 1496 1497 1498 1500 1501 1501 1502 1503 1504 1505 1506 1507 1508 1509 1510 1510 1512 1513 1514 1514 1515 1516 1516 1517 1518 1519 1519 1519 1520 1520 1520 1520
1500 1500 1498 1496 1495 1496 1497 1496 1493 1491 1492 1492 1492 1492 1492 1492 1493 1493 1494 1495 1497 1498 1499 1500 1501 1502 1503 1504 1505 1506 1506 1507 1508 1509 1511 1511 1512 1513 1513 1514 1515 1515 1516 1517 1517 1517 1517 1517 1517
1500 1502 1503 1496 1494 1494 1499 1497 1490 1489 1489 1489 1490 1490 1489 1489 1490 1491 1492 1493 1494 1495 1496 1497 1499 1500 1501 1502 1503 1504 1504 1505 1506 1507 1508 1509 1509 1510 1511 1511 1512 1513 1513 1514 1514 1514 1514 1514 1514
1505 1507 1504 1498 1494 1494 1496 1494 1488 1487 1487 1487 1487 1487 1487 1487 1487 1489 1489 1490 1491 1492 1494 1495 1496 1497 1498 1499 1500 1501 1502 1502 1503 1504 1505 1505 1506 1507 1508 1508 1509 1509 1510 1510 1511 1511 1510 1510 1510
1505 1506 1503 1500 1494 1494 1495 1491 1487 1486 1485 1485 1485 1484 1484 1484 1484 1486 1486 1487 1488 1490 1491 1492 1493 1494 1496 1497 1498 1499 1500 1500 1501 1501 1501 1502 1503 1504 1505 1506 1506 1506 1507 1507 1507 1507 1507 1507 1507
1500 1502 1502 1498 1494 1494 1493 1489 1485 1483 1483 1482 1481 1481 1480 1480 1481 1483 1483 1485 1486 1487 1488 1489 1490 1491 1492 1493 1494 1495 1496 1496 1497 1498 1498 1499 1500 1501 1502 1502 1503 1503 1503 1504 1504 1504 1504 1504 1504
1499 1501 1501 1498 1494 1494 1492 1488 1482 1479 1478 1477 1477 1477 1478 1478 1478 1479 1481 1482 1482 1483 1484 1485 1486 1488 1489 1489 1491 1492 1493 1493 1494 1494 1495 1496 1497 1498 1498 1499 1500 1500 1500 1500 1500 1500 1500 1500 1501
1498 1500 1499 1499 1496 1493 1494 1488 1481 1477 1475 1474 1474 1474 1475 1475 1475 1476 1477 1478 1479 1480 1481 1482 1483 1485 1486 1487 1488 1489 1490 1490 1491 1491 1492 1493 1494 1495 1495 1496 1496 1497 1497 1497 1497 1497 1497 1497 1497
1498 1495 1495 1497 1501 1502 1498 1499 1483 1478 1475 1473 1472 1472 1472 1473 1473 1473 1474 1475 1475 1476 1478 1479 1480 1482 1483 1484 1484 1485 1485 1486 1487 1488 1489 1489 1490 1491 1492 1492 1493 1493 1493 1493 1493 1493 1493 1494 1494
1495 1494 1495 1496 1500 1503 1500 1502 1487 1479 1476 1472 1470 1469 1469 1470 1470 1471 1472 1472 1473 1474 1475 1476 1477 1479 1480 1481 1482 1482 1483 1484 1484 1485 1486 1487 1487 1488 1488 1489 1490 1490 1489 1489 1489 1489 1490 1490 1490
1493 1496 1498 1502 1505 1506 1498 1501 1489 1480 1473 1469 1468 1467 1467 1468 1469 1470 1470 1471 1471 1472 1473 1474 1475 1476 1477 1478 1479 1480 1480 1481 1481 1482 1483 1484 1484 1484 1485 1486 1486 1486 1485 1485 1485 1485 1486 1486 1486
1495 1501 1509 1509 1513 1504 1496 1496 1485 1473 1469 1467 1467 1466 1466 1467 1467 1468 1468 1469 1469 1470 1471 1472 1472 1473 1474 1475 1476 1477 1477 1478 1478 1479 1480 1480 1481 1481 1481 1482 1482 1481 1481 1481 1481 1481 1482 1482 1482
1495 1498 1507 1509 1510 1503 1496 1493 1479 1470 1468 1466 1466 1466 1466 1466 1466 1467 1467 1467 1468 1468 1469 1470 1470 1471 1472 1472 1473 1474 1474 1475 1475 1476 1476 1477 1477 1477 1477 1478 1478 1477 1477 1477 1477 1477 1477 1477 1478
1494 1499 1498 1508 1511 1510 1498 1489 1476 1468 1467 1467 1466 1466 1465 1465 1466 1466 1466 1467 1467 1467 1467 1468 1468 1468 1469 1469 1470 1471 1471 1471 1472 1472 1473 1473 1473 1473 1473 1473 1473 1473 1473 1473 1473 1472 1472 1473 1473
1491 1495 1502 1505 1505 1503 1496 1491 1480 1470 1468 1467 1466 1465 1465 1465 1465 1465 1465 1465 1465 1466 1466 1466 1466 1466 1466 1466 1467 1467 1468 1468 1468 1469 1469 1469 1469 1469 1469 1469 1469 1469 1468 1468 1468 1468 1468 1468 1468
1493 1495 1497 1503 1504 1503 1501 1486 1470 1467 1466 1466 1465 1465 1464 1464 1464 1464 1464 1464 1464 1464 1464 1463 1463 1463 1463 1463 1464 1464 1464 1465 1465 1465 1465 1465 1465 1465 1465 1464 1464 1464 1464 1464 1463 1463 1463 1463 1464
1488 1490 1495 1500 1502 1502 1499 1484 1466 1465 1464 1464 1464 1464 1464 1463 1463 1463 1463 1462 1462 1461 1461 1461 1461 1461 1461 1461 1461 1461 1461 1461 1461 1461 1461 1461 1460 1460 1460 1460 1459 1459 1459 1459 1459 1459 1459 1459 1459